UAL1506 KSFO-KLAX

Flight info

Callsign UAL1506
Flight time 0h 55m
Altitude 31000
Route WESLA5 SUSEY EBAYE BURGL IRNMN2
Aircraft B38M/M-SDE1FGHILORVWXY/HB1

Departure

Time 2026-04-22 17:33
Airport San Francisco International Airport (KSFO)

Arrival

Time 2026-04-22 18:28
Airport Los Angeles International Airport (KLAX)
Time Latitude Longitude Altitude Speed Heading
2026-04-22 16:59 37.61995 -122.38458 26 ft 0 kts 164°
2026-04-22 17:02 37.61921 -122.38356 26 ft 0 kts 291°
2026-04-22 17:22 37.61909 -122.38315 28 ft 4 kts 297°
2026-04-22 17:23 37.61894 -122.38301 26 ft 4 kts 10°
2026-04-22 17:23 37.61881 -122.38305 25 ft 4 kts 27°
2026-04-22 17:23 37.61905 -122.38290 25 ft 4 kts 27°
2026-04-22 17:24 37.61920 -122.38280 25 ft 0 kts 27°
2026-04-22 17:26 37.61924 -122.38277 25 ft 2 kts 28°
2026-04-22 17:26 37.61941 -122.38266 24 ft 4 kts 27°
2026-04-22 17:26 37.61967 -122.38224 24 ft 8 kts 81°
2026-04-22 17:27 37.61941 -122.38143 26 ft 12 kts 117°
2026-04-22 17:27 37.61894 -122.38031 24 ft 17 kts 118°
2026-04-22 17:27 37.61838 -122.37897 24 ft 16 kts 114°
2026-04-22 17:27 37.61796 -122.37761 24 ft 18 kts 111°
2026-04-22 17:28 37.61754 -122.37625 29 ft 19 kts 111°
2026-04-22 17:28 37.61707 -122.37482 24 ft 15 kts 117°
2026-04-22 17:28 37.61657 -122.37363 26 ft 16 kts 118°
2026-04-22 17:28 37.61602 -122.37232 26 ft 18 kts 117°
2026-04-22 17:29 37.61543 -122.37090 27 ft 19 kts 118°
2026-04-22 17:29 37.61487 -122.36958 24 ft 10 kts 122°
2026-04-22 17:29 37.61439 -122.36886 27 ft 12 kts 134°
2026-04-22 17:29 37.61382 -122.36806 26 ft 13 kts 129°
2026-04-22 17:30 37.61332 -122.36701 26 ft 15 kts 118°
2026-04-22 17:30 37.61282 -122.36582 24 ft 16 kts 118°
2026-04-22 17:30 37.61246 -122.36496 24 ft 17 kts 118°
2026-04-22 17:30 37.61187 -122.36357 24 ft 19 kts 118°
2026-04-22 17:31 37.61124 -122.36207 25 ft 20 kts 118°
2026-04-22 17:31 37.61062 -122.36062 26 ft 7 kts 118°
2026-04-22 17:31 37.61050 -122.35997 24 ft 7 kts 87°
2026-04-22 17:31 37.61070 -122.35931 25 ft 7 kts 53°
2026-04-22 17:32 37.61115 -122.35893 24 ft 9 kts 28°
2026-04-22 17:32 37.61175 -122.35890 26 ft 10 kts 341°
2026-04-22 17:32 37.61221 -122.35957 24 ft 11 kts 298°
2026-04-22 17:32 37.61344 -122.36250 25 ft 74 kts 298°
2026-04-22 17:33 37.61554 -122.36750 26 ft 119 kts 297°
2026-04-22 17:33 37.62234 -122.38359 66 ft 184 kts 297°
2026-04-22 17:33 37.62818 -122.39860 552 ft 196 kts 295°
2026-04-22 17:33 37.63419 -122.41266 1568 ft 180 kts 297°
2026-04-22 17:34 37.64045 -122.42675 2166 ft 194 kts 297°
2026-04-22 17:34 37.64752 -122.44263 2482 ft 221 kts 297°
2026-04-22 17:34 37.65540 -122.46025 2995 ft 234 kts 297°
2026-04-22 17:34 37.66325 -122.47783 3918 ft 233 kts 296°
2026-04-22 17:35 37.66900 -122.49753 4447 ft 248 kts 275°
2026-04-22 17:35 37.66607 -122.51919 5027 ft 257 kts 241°
2026-04-22 17:35 37.65448 -122.53588 5944 ft 257 kts 214°
2026-04-22 17:35 37.63748 -122.54309 6725 ft 264 kts 183°
2026-04-22 17:36 37.61947 -122.53786 7420 ft 275 kts 154°
2026-04-22 17:36 37.60237 -122.52649 8082 ft 280 kts 161°
2026-04-22 17:36 37.58389 -122.51846 8822 ft 283 kts 164°
2026-04-22 17:36 37.56536 -122.51019 9551 ft 289 kts 163°
2026-04-22 17:37 37.54622 -122.50134 10229 ft 297 kts 163°
2026-04-22 17:37 37.52628 -122.49197 10617 ft 315 kts 162°
2026-04-22 17:37 37.50519 -122.48188 11024 ft 333 kts 161°
2026-04-22 17:37 37.48501 -122.46646 11532 ft 347 kts 139°
2026-04-22 17:38 37.46825 -122.44433 12282 ft 353 kts 135°
2026-04-22 17:38 37.45117 -122.42153 12869 ft 361 kts 135°
2026-04-22 17:38 37.43392 -122.39828 13634 ft 366 kts 135°
2026-04-22 17:38 37.41639 -122.37455 14263 ft 376 kts 135°
2026-04-22 17:39 37.39851 -122.35028 14966 ft 380 kts 135°
2026-04-22 17:39 37.38039 -122.32568 15656 ft 386 kts 136°
2026-04-22 17:39 37.34347 -122.27559 16994 ft 395 kts 136°
2026-04-22 17:40 37.32465 -122.25007 17653 ft 400 kts 137°
2026-04-22 17:40 37.30556 -122.22423 18287 ft 406 kts 137°
2026-04-22 17:40 37.28623 -122.19807 18850 ft 411 kts 137°
2026-04-22 17:40 37.26673 -122.17169 19459 ft 413 kts 137°
2026-04-22 17:41 37.24712 -122.14520 20026 ft 417 kts 137°
2026-04-22 17:41 37.22731 -122.11846 20588 ft 420 kts 137°
2026-04-22 17:41 37.20731 -122.09148 21142 ft 424 kts 138°
2026-04-22 17:41 37.18709 -122.06423 21711 ft 428 kts 138°
2026-04-22 17:42 37.16674 -122.03685 22221 ft 431 kts 138°
2026-04-22 17:42 37.14621 -122.00921 22742 ft 435 kts 139°
2026-04-22 17:42 37.13253 -121.99082 23069 ft 436 kts 139°
2026-04-22 17:42 37.10475 -121.95350 23811 ft 439 kts 139°
2026-04-22 17:43 37.08389 -121.92558 24245 ft 437 kts 138°
2026-04-22 17:43 37.06318 -121.89773 24647 ft 440 kts 139°
2026-04-22 17:43 37.04205 -121.86944 24926 ft 447 kts 139°
2026-04-22 17:43 37.02081 -121.84103 25411 ft 448 kts 139°
2026-04-22 17:44 36.99948 -121.81249 25822 ft 450 kts 139°
2026-04-22 17:44 36.97802 -121.78383 26252 ft 452 kts 140°
2026-04-22 17:44 36.95646 -121.75505 26680 ft 455 kts 140°
2026-04-22 17:44 36.93478 -121.72613 27060 ft 457 kts 140°
2026-04-22 17:45 36.91296 -121.69706 27462 ft 460 kts 140°
2026-04-22 17:45 36.89102 -121.66785 27852 ft 462 kts 140°
2026-04-22 17:45 36.86897 -121.63853 28226 ft 464 kts 140°
2026-04-22 17:45 36.84682 -121.60909 28570 ft 467 kts 140°
2026-04-22 17:46 36.82451 -121.57949 28938 ft 469 kts 141°
2026-04-22 17:46 36.80208 -121.54973 29292 ft 472 kts 141°
2026-04-22 17:46 36.77982 -121.52022 29646 ft 474 kts 141°
2026-04-22 17:46 36.75710 -121.49015 29988 ft 477 kts 141°
2026-04-22 17:47 36.73427 -121.45995 30303 ft 480 kts 141°
2026-04-22 17:47 36.71132 -121.42961 30599 ft 482 kts 141°
2026-04-22 17:47 36.68831 -121.39923 30919 ft 482 kts 141°
2026-04-22 17:47 36.66524 -121.36880 31203 ft 484 kts 142°
2026-04-22 17:48 36.64986 -121.34853 31272 ft 485 kts 141°
2026-04-22 17:48 36.59587 -121.27746 31248 ft 482 kts 142°
2026-04-22 17:49 36.54973 -121.21686 31273 ft 482 kts 142°
2026-04-22 17:49 36.50353 -121.15626 31272 ft 483 kts 142°
2026-04-22 17:50 36.45731 -121.09575 31272 ft 483 kts 142°
2026-04-22 17:50 36.41244 -121.03326 31280 ft 487 kts 139°
2026-04-22 17:51 36.36833 -120.96960 31273 ft 486 kts 139°
2026-04-22 17:51 36.32414 -120.90627 31269 ft 485 kts 139°
2026-04-22 17:52 36.27991 -120.84302 31265 ft 485 kts 139°
2026-04-22 17:52 36.24316 -120.79056 31252 ft 485 kts 139°
2026-04-22 17:53 36.19892 -120.72751 31256 ft 485 kts 139°
2026-04-22 17:53 36.15464 -120.66452 31279 ft 485 kts 139°
2026-04-22 17:54 36.11036 -120.60165 31263 ft 484 kts 139°
2026-04-22 17:54 36.06608 -120.53889 31242 ft 484 kts 139°
2026-04-22 17:55 36.02180 -120.47625 31255 ft 483 kts 139°
2026-04-22 17:55 35.97759 -120.41384 31256 ft 483 kts 139°
2026-04-22 17:56 35.93336 -120.35150 31220 ft 482 kts 139°
2026-04-22 17:56 35.88923 -120.28940 31247 ft 481 kts 139°
2026-04-22 17:56 35.86594 -120.26058 31224 ft 465 kts 153°
2026-04-22 17:57 35.83923 -120.23937 31263 ft 457 kts 158°
2026-04-22 17:57 35.78515 -120.19761 31248 ft 458 kts 158°
2026-04-22 17:58 35.73090 -120.15655 31231 ft 458 kts 158°
2026-04-22 17:58 35.67665 -120.11572 31260 ft 457 kts 158°
2026-04-22 17:59 35.62250 -120.07481 31247 ft 457 kts 158°
2026-04-22 17:59 35.56836 -120.03397 31212 ft 456 kts 158°
2026-04-22 18:00 35.52296 -119.99979 31249 ft 457 kts 158°
2026-04-22 18:00 35.45996 -119.95243 31239 ft 457 kts 158°
2026-04-22 18:01 35.40579 -119.91177 31235 ft 456 kts 158°
2026-04-22 18:01 35.35157 -119.87114 31230 ft 457 kts 158°
2026-04-22 18:02 35.29725 -119.83046 31230 ft 458 kts 157°
2026-04-22 18:02 35.24549 -119.78353 31232 ft 464 kts 152°
2026-04-22 18:03 35.19401 -119.73603 31218 ft 463 kts 152°
2026-04-22 18:03 35.14243 -119.68877 31233 ft 463 kts 152°
2026-04-22 18:04 35.09123 -119.64086 31224 ft 464 kts 150°
2026-04-22 18:04 35.04063 -119.59284 31173 ft 449 kts 151°
2026-04-22 18:04 35.01615 -119.56998 31031 ft 438 kts 152°
2026-04-22 18:05 34.99208 -119.54762 30669 ft 433 kts 152°
2026-04-22 18:05 34.96813 -119.52538 30206 ft 432 kts 152°
2026-04-22 18:05 34.94426 -119.50322 29636 ft 432 kts 152°
2026-04-22 18:05 34.92039 -119.48113 29144 ft 429 kts 152°
2026-04-22 18:06 34.89646 -119.45966 28675 ft 426 kts 153°
2026-04-22 18:06 34.87274 -119.43841 28314 ft 421 kts 153°
2026-04-22 18:06 34.84922 -119.41731 27865 ft 418 kts 152°
2026-04-22 18:06 34.82590 -119.39641 27439 ft 416 kts 152°
2026-04-22 18:07 34.80266 -119.37559 26998 ft 414 kts 152°
2026-04-22 18:07 34.77953 -119.35488 26557 ft 412 kts 152°
2026-04-22 18:07 34.75643 -119.33424 26126 ft 411 kts 152°
2026-04-22 18:07 34.73302 -119.31375 25607 ft 421 kts 152°
2026-04-22 18:08 34.70909 -119.29279 25126 ft 426 kts 152°
2026-04-22 18:08 34.68494 -119.27163 24702 ft 429 kts 152°
2026-04-22 18:08 34.66114 -119.25079 24263 ft 427 kts 152°
2026-04-22 18:08 34.63698 -119.22989 23772 ft 426 kts 153°
2026-04-22 18:09 34.61279 -119.20901 23187 ft 426 kts 152°
2026-04-22 18:09 34.58871 -119.18822 22757 ft 423 kts 152°
2026-04-22 18:09 34.56492 -119.16759 22289 ft 420 kts 151°
2026-04-22 18:09 34.54130 -119.14662 21761 ft 420 kts 151°
2026-04-22 18:10 34.51779 -119.12583 21327 ft 417 kts 151°
2026-04-22 18:10 34.49435 -119.10514 20827 ft 417 kts 150°
2026-04-22 18:10 34.47093 -119.08448 20360 ft 416 kts 150°
2026-04-22 18:10 34.44755 -119.06388 19920 ft 415 kts 150°
2026-04-22 18:11 34.42394 -119.04340 19188 ft 421 kts 150°
2026-04-22 18:11 34.40008 -119.02270 18598 ft 424 kts 150°
2026-04-22 18:11 34.37614 -119.00193 17907 ft 419 kts 150°
2026-04-22 18:11 34.35272 -118.98161 17244 ft 410 kts 150°
2026-04-22 18:12 34.32995 -118.96115 16578 ft 404 kts 148°
2026-04-22 18:12 34.30776 -118.94103 16095 ft 392 kts 148°
2026-04-22 18:12 34.29331 -118.92799 15797 ft 391 kts 148°
2026-04-22 18:12 34.26421 -118.90173 15196 ft 386 kts 148°
2026-04-22 18:13 34.24308 -118.88237 14673 ft 378 kts 147°
2026-04-22 18:13 34.22239 -118.86335 14205 ft 369 kts 147°
2026-04-22 18:13 34.20224 -118.84487 13767 ft 359 kts 147°
2026-04-22 18:13 34.18260 -118.82686 13315 ft 350 kts 147°
2026-04-22 18:14 34.16357 -118.80902 12864 ft 343 kts 143°
2026-04-22 18:14 34.14617 -118.78986 12504 ft 333 kts 141°
2026-04-22 18:14 34.12920 -118.77123 12194 ft 329 kts 141°
2026-04-22 18:14 34.11223 -118.75279 11858 ft 329 kts 141°
2026-04-22 18:15 34.09521 -118.73439 11521 ft 328 kts 141°
2026-04-22 18:15 34.07823 -118.71607 11188 ft 327 kts 141°
2026-04-22 18:15 34.06124 -118.69780 10834 ft 326 kts 141°
2026-04-22 18:15 34.04450 -118.67972 10458 ft 318 kts 139°
2026-04-22 18:16 34.03155 -118.65840 10144 ft 318 kts 113°
2026-04-22 18:16 34.02664 -118.63255 9785 ft 316 kts 94°
2026-04-22 18:16 34.02431 -118.60625 9451 ft 315 kts 96°
2026-04-22 18:16 34.02180 -118.58008 9112 ft 314 kts 96°
2026-04-22 18:17 34.01936 -118.55432 8761 ft 305 kts 96°
2026-04-22 18:17 34.01700 -118.52927 8426 ft 296 kts 95°
2026-04-22 18:17 34.01472 -118.50508 8125 ft 286 kts 95°
2026-04-22 18:17 34.01250 -118.48157 7836 ft 277 kts 95°
2026-04-22 18:18 34.01067 -118.45888 7533 ft 268 kts 88°
2026-04-22 18:18 34.01340 -118.43706 7172 ft 259 kts 75°
2026-04-22 18:18 34.01715 -118.41610 6844 ft 253 kts 76°
2026-04-22 18:18 34.02073 -118.39559 6546 ft 247 kts 76°
2026-04-22 18:19 34.02413 -118.37593 6223 ft 241 kts 76°
2026-04-22 18:19 34.02726 -118.35660 6071 ft 226 kts 81°
2026-04-22 18:19 34.02916 -118.33829 6033 ft 220 kts 81°
2026-04-22 18:19 34.03110 -118.31964 5909 ft 227 kts 81°
2026-04-22 18:20 34.03310 -118.30079 5687 ft 227 kts 82°
2026-04-22 18:20 34.03517 -118.28192 5427 ft 227 kts 82°
2026-04-22 18:20 34.03723 -118.26313 5163 ft 226 kts 82°
2026-04-22 18:20 34.03927 -118.24444 4908 ft 224 kts 82°
2026-04-22 18:21 34.04130 -118.22593 4646 ft 222 kts 83°
2026-04-22 18:21 34.04330 -118.20758 4383 ft 220 kts 82°
2026-04-22 18:21 34.04532 -118.18932 4115 ft 220 kts 82°
2026-04-22 18:21 34.04732 -118.17103 3857 ft 219 kts 83°
2026-04-22 18:22 34.04833 -118.15293 3646 ft 214 kts 100°
2026-04-22 18:22 34.04221 -118.13712 3456 ft 209 kts 135°
2026-04-22 18:22 34.02995 -118.12847 3311 ft 206 kts 166°
2026-04-22 18:22 34.01593 -118.12501 3225 ft 206 kts 171°
2026-04-22 18:23 34.00175 -118.12234 3107 ft 206 kts 176°
2026-04-22 18:23 33.98818 -118.12586 2944 ft 202 kts 212°
2026-04-22 18:23 33.97879 -118.13804 2947 ft 199 kts 238°
2026-04-22 18:24 33.96629 -118.16599 3066 ft 185 kts 241°
2026-04-22 18:24 33.96030 -118.17964 3021 ft 184 kts 241°
2026-04-22 18:24 33.94856 -118.20690 3011 ft 183 kts 246°
2026-04-22 18:25 33.94770 -118.22194 2947 ft 183 kts 283°
2026-04-22 18:25 33.95142 -118.23680 2762 ft 187 kts 277°
2026-04-22 18:25 33.95137 -118.25196 2473 ft 176 kts 260°
2026-04-22 18:26 33.94795 -118.27923 2067 ft 176 kts 262°
2026-04-22 18:26 33.94649 -118.29394 1707 ft 172 kts 262°
2026-04-22 18:26 33.94515 -118.30737 1448 ft 152 kts 261°
2026-04-22 18:26 33.94389 -118.31949 1215 ft 144 kts 261°
2026-04-22 18:27 33.94262 -118.33155 986 ft 145 kts 261°
2026-04-22 18:27 33.94130 -118.34359 802 ft 145 kts 260°
2026-04-22 18:27 33.94005 -118.35560 562 ft 144 kts 262°
2026-04-22 18:27 33.93896 -118.36728 366 ft 141 kts 262°
2026-04-22 18:28 33.93776 -118.37870 193 ft 134 kts 263°
2026-04-22 18:28 33.93670 -118.38940 96 ft 119 kts 262°
2026-04-22 18:28 33.93586 -118.39751 97 ft 78 kts 262°
2026-04-22 18:28 33.93548 -118.40121 98 ft 25 kts 263°
2026-04-22 18:29 33.93533 -118.40334 98 ft 25 kts 270°
2026-04-22 18:29 33.93558 -118.40530 98 ft 23 kts 288°
2026-04-22 18:29 33.93595 -118.40639 99 ft 13 kts 288°
2026-04-22 18:29 33.93594 -118.40749 98 ft 13 kts 263°
2026-04-22 18:30 33.93612 -118.40860 98 ft 12 kts 294°
2026-04-22 18:30 33.93757 -118.40909 97 ft 5 kts
2026-04-22 18:30 33.93788 -118.40873 96 ft 7 kts 70°
2026-04-22 18:31 33.93796 -118.40804 99 ft 9 kts 84°
2026-04-22 18:31 33.93805 -118.40719 98 ft 11 kts 82°
2026-04-22 18:31 33.93816 -118.40614 97 ft 14 kts 82°
2026-04-22 18:31 33.93828 -118.40491 99 ft 16 kts 83°
2026-04-22 18:32 33.93837 -118.40400 99 ft 17 kts 83°
2026-04-22 18:32 33.93859 -118.40190 98 ft 20 kts 83°
2026-04-22 18:32 33.93870 -118.40083 101 ft 10 kts 83°
2026-04-22 18:32 33.93903 -118.40048 98 ft 7 kts 353°
2026-04-22 18:33 33.93967 -118.40057 98 ft 11 kts 353°
2026-04-22 18:33 33.94055 -118.40070 95 ft 14 kts 352°
2026-04-22 18:33 33.94154 -118.40085 96 ft 16 kts 353°
2026-04-22 18:33 33.94191 -118.40075 98 ft 3 kts 75°
2026-04-22 18:34 33.94199 -118.40045 95 ft 4 kts 70°
2026-04-22 18:34 33.94201 -118.40036 97 ft 1 kts 70°
2026-04-22 18:34 33.94202 -118.40034 96 ft 0 kts 70°